Wind_Speed
27 28 29 29 29 29 29 28 28 28 29 29 28 28 27 26 26 27 27 28 28 28 28 28 28 28 29 29 30 31 31 32 33 34 34 33 32 30 29 28 28 29 30 32 32 32 31 30 29 28 27 25 25 24 24 24 24 24 25 26 26 26 26 25 24 24 23 22 22
26 28 29 29 29 30 30 30 30 30 30 29 28 27 26 27 27 28 28 29 28 28 27 28 28 28 29 29 29 30 31 32 33 34 34 34 32 30 29 29 29 30 31 32 33 33 31 29 28 26 25 24 23 23 23 22 22 23 24 24 25 25 25 24 23 22 21 21 22
26 27 29 30 30 30 30 30 31 31 30 29 28 27 27 27 28 29 30 30 28 27 27 27 28 28 29 29 29 29 30 32 33 33 34 34 32 31 30 29 30 30 31 33 33 32 31 29 27 25 24 23 22 22 22 21 21 21 22 22 22 23 23 23 21 19 18 19 21
26 27 29 30 30 30 30 30 31 31 31 30 28 28 28 28 29 30 31 30 28 27 26 27 28 28 28 28 29 29 30 31 32 33 33 33 33 32 31 30 31 31 32 32 33 33 31 29 28 26 24 23 22 21 21 20 20 20 20 20 19 19 19 19 17 16 17 19 21
27 28 29 29 30 30 30 31 31 31 30 30 28 28 29 30 31 31 31 30 29 27 26 27 27 28 28 27 28 29 30 30 31 32 33 33 33 32 31 31 31 31 32 32 33 33 32 30 29 28 26 23 22 20 19 19 19 19 19 18 18 17 16 16 15 16 18 20 21
28 28 29 30 30 31 31 31 31 31 30 29 29 29 30 31 31 32 32 31 29 27 26 27 27 27 27 27 27 28 29 30 31 32 32 32 32 32 32 31 31 31 31 32 33 33 33 32 31 30 28 24 21 19 18 19 19 20 21 20 19 18 17 17 17 19 20 21 22
29 30 30 31 31 31 32 32 32 31 31 30 29 29 30 31 32 32 32 31 29 28 27 27 27 27 26 26 26 27 28 29 31 32 32 31 31 32 32 31 31 31 31 32 33 33 34 33 33 32 30 27 22 19 17 17 19 21 22 23 22 21 20 20 21 22 23 24 25
31 31 31 32 32 32 32 32 32 32 31 30 30 30 31 31 31 32 32 31 30 28 27 27 27 26 25 25 25 26 28 28 30 31 31 31 31 31 31 31 31 31 31 31 32 33 34 34 33 33 32 30 26 21 17 15 16 18 20 22 22 22 21 22 22 24 25 25 26
32 32 32 33 33 33 33 33 33 32 31 30 30 31 31 31 31 31 31 31 30 28 27 26 26 26 24 23 24 26 27 28 29 31 31 30 30 30 30 31 31 30 30 31 31 32 33 33 34 33 33 31 28 24 19 16 15 15 17 18 19 19 20 21 23 24 24 25 26
33 33 33 34 34 34 34 33 33 32 31 31 31 31 31 31 31 31 31 31 30 29 27 26 26 25 24 22 23 25 26 27 29 30 30 30 29 29 30 30 30 30 30 30 31 31 32 33 33 33 33 32 30 27 22 18 15 15 16 16 15 14 14 17 21 23 24 25 26
34 34 34 34 34 34 34 34 33 32 32 32 32 32 32 31 31 31 31 31 30 29 27 26 26 24 23 22 22 23 25 26 27 29 29 29 29 29 29 29 29 29 29 29 30 30 31 31 32 33 33 32 31 28 25 22 18 16 15 15 14 12 11 13 16 19 22 24 26
34 34 34 34 34 34 34 33 33 32 32 32 32 32 32 32 31 31 31 30 30 28 27 26 26 24 22 21 21 22 23 25 26 27 28 29 29 29 29 29 29 28 28 28 28 29 30 30 30 31 32 32 31 30 27 24 21 18 15 13 13 12 11 12 14 16 19 21 23
34 34 34 34 34 33 33 33 32 32 32 31 32 32 32 32 31 31 31 30 30 29 27 26 25 24 22 21 21 21 22 23 25 26 27 28 28 29 29 29 28 27 27 26 27 28 28 28 29 29 30 30 30 30 29 26 24 21 19 16 14 13 12 13 14 15 16 17 18
35 34 34 33 33 33 32 32 31 31 31 31 31 31 31 31 31 31 31 30 30 29 27 26 25 24 22 21 21 21 22 22 24 25 27 28 28 29 29 29 28 27 26 25 25 26 26 27 27 27 28 28 28 28 28 27 25 23 22 20 18 16 15 15 15 16 16 15 15
35 34 34 33 32 32 31 31 30 30 30 30 30 31 31 31 31 31 31 30 30 29 27 26 25 24 23 21 21 21 22 23 24 25 26 27 28 28 28 28 28 27 25 25 24 25 24 24 25 25 26 27 27 26 26 25 24 22 21 20 19 17 16 16 16 16 15 15 14
35 34 33 33 32 31 30 29 29 29 29 29 30 30 30 31 31 31 30 30 30 29 27 26 25 24 23 22 22 22 23 23 24 25 26 27 28 28 28 27 27 26 26 25 24 23 22 22 22 23 24 25 26 25 25 23 22 20 19 18 17 16 15 15 15 14 14 13 12
34 34 33 32 32 31 29 28 28 28 28 29 29 30 30 31 31 31 30 30 30 29 28 26 25 24 23 23 23 23 23 24 24 25 26 27 27 27 27 26 26 26 26 26 24 22 20 20 21 22 23 24 25 25 24 22 21 19 17 15 14 13 13 12 12 12 12 11 10
34 34 33 32 31 30 29 28 28 28 28 29 30 31 31 31 31 31 30 30 29 29 28 27 25 24 23 23 22 23 23 24 24 25 26 26 26 26 26 25 25 26 26 26 23 20 18 19 20 22 23 24 24 24 24 22 21 19 17 15 13 12 11 10 10 10 10 9 8
34 34 33 32 31 30 29 28 28 28 29 30 31 32 32 32 32 32 31 30 29 28 28 27 26 24 23 22 22 22 22 23 24 25 25 25 25 26 25 25 24 25 26 26 22 18 17 20 21 22 23 23 24 24 24 23 21 19 17 16 14 13 11 10 9 8 8 8 7
34 33 33 32 30 29 29 29 29 30 31 32 33 33 33 33 32 32 32 31 30 28 27 27 26 25 23 22 21 21 21 21 23 24 24 24 25 25 25 24 24 25 26 26 21 18 18 22 23 23 23 24 24 24 24 23 22 21 19 17 15 15 14 12 10 8 7 6 7
33 33 32 31 30 29 29 29 30 31 33 33 33 33 33 33 34 33 32 31 30 28 27 26 25 24 23 22 21 20 20 20 21 22 23 23 24 24 24 23 23 25 27 26 21 18 18 23 24 24 24 23 23 23 23 23 22 21 20 18 17 15 14 14 13 12 9 6 4
33 32 32 31 30 29 29 30 31 33 34 34 34 34 34 35 35 34 33 32 30 29 27 26 25 23 22 21 21 20 20 20 20 21 21 22 23 23 22 22 23 27 29 27 23 18 18 24 25 24 23 23 23 22 22 22 22 21 21 19 18 16 15 14 14 14 13 10 7
32 32 31 30 30 30 30 31 33 34 35 35 34 35 35 36 36 35 34 32 31 29 27 26 24 23 22 21 20 19 19 19 19 19 19 21 22 23 21 21 23 28 31 29 26 19 16 23 24 24 23 22 22 21 21 21 21 21 20 20 19 17 16 14 14 14 14 15 13
32 31 31 31 31 31 31 32 34 34 35 35 35 35 36 37 36 36 35 33 31 29 27 25 24 22 21 20 19 19 18 18 18 19 19 21 23 23 21 20 22 27 31 32 31 22 16 21 23 22 21 21 20 19 19 19 19 19 19 19 18 18 17 15 14 13 14 15 17
32 31 31 31 31 32 33 33 34 35 35 35 35 36 36 37 37 36 35 33 31 29 27 25 24 23 22 21 20 18 18 18 18 19 20 22 24 24 22 20 21 25 30 33 34 24 16 19 21 21 20 19 18 18 17 17 17 17 18 17 17 17 16 16 15 14 14 14 16
31 31 31 31 32 33 33 34 34 34 34 35 35 36 37 37 37 36 35 33 31 29 27 26 25 24 23 22 20 19 18 18 18 19 21 23 26 25 23 21 21 23 27 32 36 26 16 18 21 21 20 19 18 16 16 15 15 16 16 16 15 15 15 16 16 15 15 15 15
31 31 31 32 33 33 34 34 34 34 34 35 35 36 37 37 36 35 34 32 30 28 27 27 27 26 24 23 22 21 20 19 19 19 21 24 27 27 25 23 22 22 25 29 35 27 18 18 20 22 21 19 17 16 15 14 14 15 15 15 14 14 15 16 17 17 17 17 16
31 31 32 32 33 33 34 34 34 34 34 34 35 36 36 36 35 34 33 31 29 28 28 28 28 27 26 24 23 22 21 20 19 20 22 24 27 28 27 25 23 23 24 27 32 29 22 18 19 21 22 20 17 15 14 13 14 15 16 16 15 15 15 16 18 19 19 19 18
31 31 32 32 33 33 33 33 33 34 34 34 35 36 36 35 35 33 32 30 29 29 29 29 29 28 26 25 24 23 22 21 20 21 23 25 28 28 28 27 25 24 23 25 29 31 28 19 18 20 21 19 17 14 13 12 13 15 16 17 18 17 17 18 19 20 21 21 20
31 31 32 32 32 33 33 33 33 33 33 34 34 35 35 35 34 32 30 29 28 28 29 29 28 27 26 25 24 24 24 22 22 23 25 27 28 29 29 28 27 25 24 24 26 30 30 23 18 17 18 18 16 14 12 11 12 14 16 18 20 20 20 20 21 22 23 22 21
31 31 32 32 32 32 32 32 33 33 33 33 34 34 35 35 33 31 29 28 28 28 27 27 27 27 25 24 24 25 25 25 25 25 26 28 29 29 29 29 28 27 25 24 25 28 31 30 20 15 14 15 14 13 11 11 11 13 15 18 20 21 22 21 21 22 23 23 22
31 32 32 32 32 32 32 32 32 32 32 33 33 34 34 34 32 30 28 27 27 27 26 26 26 26 25 24 23 24 26 27 27 27 27 28 29 29 29 29 29 28 26 24 23 25 30 33 23 15 11 12 12 12 11 10 10 12 14 16 19 20 21 20 21 21 22 23 23
32 32 32 32 32 32 32 32 32 32 32 32 32 33 34 34 31 29 27 26 27 26 25 25 25 25 25 24 24 24 25 26 27 28 28 28 29 29 29 29 29 28 27 25 23 24 29 33 26 18 12 11 11 11 10 10 10 11 12 15 17 18 18 18 18 19 21 22 22
32 33 32 32 32 31 31 31 31 31 31 32 32 33 33 33 31 28 26 26 26 25 24 24 24 24 24 24 24 25 25 25 26 27 28 28 29 29 29 29 28 28 28 26 24 24 27 30 27 21 15 12 10 10 10 10 10 10 11 13 15 16 16 16 16 17 19 20 21
32 33 33 32 32 31 31 31 31 31 31 32 33 33 33 32 30 28 25 25 25 24 24 23 23 23 23 24 24 25 26 26 26 27 27 28 28 29 29 29 28 28 27 26 23 22 24 27 25 21 17 12 10 10 10 11 10 10 10 11 12 14 14 15 16 16 18 19 21
32 33 33 33 32 31 31 30 30 30 31 32 33 33 33 32 30 27 24 24 24 24 23 23 22 22 23 24 26 27 28 28 28 27 27 27 28 29 30 29 28 27 26 25 22 21 22 25 22 21 19 13 11 10 11 11 11 11 10 11 11 11 13 16 17 18 18 20 22
32 32 33 33 32 31 30 30 30 30 31 32 32 32 33 32 30 27 24 23 23 23 23 22 22 22 24 25 27 29 30 30 29 27 27 27 29 30 30 29 27 26 24 23 21 19 20 24 20 20 19 15 12 11 11 12 12 11 11 11 10 10 12 16 20 21 22 23 24
31 32 33 33 32 31 30 29 29 30 30 31 31 32 31 31 30 27 24 22 22 23 23 22 22 23 24 25 27 29 29 29 28 26 26 28 30 30 30 27 26 24 23 23 21 19 20 23 19 18 19 16 13 11 11 12 12 12 12 11 10 9 10 14 19 24 26 26 27
31 32 32 33 32 31 30 29 29 29 30 30 31 31 31 31 30 27 24 21 21 21 22 22 23 23 24 25 27 28 29 28 26 25 25 27 30 31 30 27 25 24 23 23 22 21 21 23 18 17 18 16 13 11 11 12 12 12 12 11 10 8 7 9 14 20 25 27 28
30 31 32 32 32 31 30 29 28 28 28 29 30 30 30 30 29 27 24 21 20 20 21 22 23 23 23 24 26 28 28 27 25 23 23 26 29 31 31 28 25 24 24 24 23 22 22 24 19 17 16 14 12 10 10 11 12 13 13 12 10 8 6 6 8 12 17 21 24
29 30 31 32 32 31 31 29 28 28 27 28 29 29 29 29 28 27 24 21 19 19 20 21 22 23 23 23 25 27 27 26 24 22 21 24 28 31 31 29 26 24 24 25 24 23 24 26 21 18 15 12 10 9 9 10 11 13 13 12 11 9 7 5 6 8 11 14 18
Wind_Direction
352 350 349 350 349 348 347 346 345 344 344 345 346 345 343 339 334 331 330 331 332 334 336 336 336 337 338 340 341 341 341 343 345 347 348 348 347 346 346 347 349 351 351 349 346 342 337 334 330 326 321 317 314 311 307 303 299 295 291 287 285 283 279 275 269 266 265 266 268
352 349 348 349 349 349 348 347 347 347 347 348 349 347 343 339 335 333 333 334 336 337 338 337 338 338 339 341 341 341 342 343 345 346 347 347 347 347 347 350 353 355 355 353 350 346 343 341 337 331 326 323 320 318 314 310 306 301 295 290 286 283 279 274 270 267 267 268 270
351 349 348 348 349 349 349 348 348 348 349 350 351 348 344 341 338 336 336 337 338 340 339 339 339 340 340 340 341 342 343 343 344 345 346 347 347 347 348 351 354 357 358 357 354 351 350 347 343 337 332 328 326 323 320 318 315 310 304 297 292 285 279 274 271 270 272 274 274
352 349 347 347 348 349 349 348 348 349 350 351 350 348 345 342 341 340 339 339 340 341 341 341 340 340 340 340 341 343 345 344 343 344 346 346 347 347 348 350 354 358 0 -0 358 357 355 352 348 343 338 332 328 325 323 323 321 317 313 309 302 292 283 277 275 277 280 280 278
352 350 348 348 348 349 349 349 349 349 350 351 349 347 345 344 343 343 342 342 342 342 342 342 340 339 339 339 342 345 346 345 343 344 346 346 347 347 347 348 351 355 359 1 1 0 358 356 354 349 343 333 327 324 323 324 322 318 316 314 309 302 294 288 286 285 283 280 278
352 351 350 349 348 348 348 348 348 349 349 350 349 347 345 345 344 344 344 344 343 343 343 342 340 339 338 340 344 347 347 344 344 345 346 347 348 348 347 347 348 351 356 1 3 3 2 0 358 354 347 338 328 322 321 321 319 315 311 309 307 304 300 295 292 287 281 277 279
351 350 349 348 348 347 347 347 347 348 349 349 348 347 346 346 345 345 345 344 344 344 344 342 340 339 339 342 346 349 348 344 343 345 347 348 349 349 348 347 346 347 352 358 2 4 5 3 1 356 351 343 334 324 317 314 313 311 309 307 305 303 299 295 289 283 280 280 284
349 349 348 347 346 346 346 346 346 347 348 348 347 347 347 346 346 345 345 345 346 345 344 342 340 339 340 343 349 351 349 344 343 345 348 350 350 350 349 348 346 346 348 353 359 3 5 5 3 359 354 349 341 330 316 304 303 306 308 306 305 303 298 292 286 282 282 283 285
348 347 346 345 345 345 344 344 345 345 346 346 346 346 346 346 346 345 346 346 346 345 344 343 341 339 339 344 350 353 350 345 344 346 349 351 352 352 351 349 347 346 346 349 355 0 3 5 4 1 358 352 346 337 323 307 301 302 304 304 304 303 297 287 283 282 282 283 283
346 345 345 344 344 343 343 342 343 344 344 345 345 345 345 345 345 346 346 346 345 345 345 344 341 339 340 345 351 354 351 345 344 346 349 351 352 352 352 350 348 346 346 347 351 356 0 2 3 2 360 355 349 342 334 322 313 305 302 300 300 297 290 281 277 276 276 277 278
344 344 343 343 342 341 341 341 342 342 343 344 344 344 344 345 345 345 345 345 345 345 345 344 342 340 341 345 351 354 352 346 343 345 349 351 352 352 352 351 349 348 347 347 349 352 356 359 1 2 1 358 353 347 340 332 323 312 300 293 288 284 278 272 270 269 270 272 275
343 343 342 341 341 340 341 341 341 342 343 343 343 344 344 345 345 345 345 345 345 345 345 344 342 340 341 345 350 352 351 347 344 345 349 352 352 352 351 350 349 349 348 348 348 350 353 356 359 0 1 360 356 351 345 338 329 319 306 295 287 283 279 275 273 272 272 273 275
343 342 341 341 341 340 341 341 341 342 342 343 343 344 344 345 345 345 345 345 345 345 344 344 341 340 340 343 347 350 350 348 345 346 349 352 352 351 350 348 349 349 349 348 348 349 350 353 356 359 0 -0 358 354 349 343 336 328 320 311 303 297 291 286 283 281 279 279 279
342 342 342 342 342 342 342 342 342 343 343 343 344 344 344 345 345 345 345 345 344 344 344 343 341 339 339 341 344 346 347 347 347 348 350 352 352 351 349 347 347 348 349 349 348 347 348 351 355 358 359 360 359 356 352 348 343 336 330 323 316 309 302 296 292 288 286 284 283
343 344 344 344 344 344 344 344 344 344 344 344 345 345 345 345 345 345 345 344 344 344 344 343 340 338 337 338 340 343 345 346 348 349 351 352 352 350 347 345 345 347 348 348 347 346 347 350 354 357 359 359 359 357 354 351 348 343 337 331 324 317 309 303 298 294 290 287 285
345 346 346 346 347 347 347 347 346 346 346 346 346 346 346 346 345 345 345 344 343 342 343 342 340 337 335 335 337 340 342 345 347 350 352 353 351 348 345 343 343 345 347 347 346 345 346 350 355 358 359 359 359 357 355 354 352 349 345 339 332 324 316 308 302 297 292 288 286
348 348 349 349 349 349 349 349 349 349 349 349 348 348 348 347 345 344 344 344 343 342 341 341 340 337 335 333 334 337 340 343 346 349 352 352 350 346 342 340 342 345 347 347 347 347 348 352 357 359 360 359 359 357 356 355 354 354 353 350 345 336 327 317 307 300 294 289 285
350 350 351 351 351 351 351 352 352 352 352 351 350 349 348 347 346 344 343 343 342 341 341 340 339 338 335 333 332 334 338 341 345 349 351 351 347 342 339 339 342 346 349 351 354 355 357 359 1 2 1 0 359 358 356 355 354 355 356 358 358 354 345 334 320 308 300 296 290
352 352 352 352 352 353 353 354 354 354 353 352 351 349 348 347 347 345 344 343 342 342 341 340 339 337 335 333 332 332 334 338 343 347 350 348 343 338 336 339 344 349 354 359 4 7 8 7 6 5 4 2 0 358 357 356 354 354 354 358 2 6 6 0 347 329 314 306 298
352 352 352 353 353 354 354 355 355 355 354 352 351 350 350 349 348 347 346 344 343 342 341 341 339 338 337 334 332 332 333 336 342 346 348 346 340 336 336 341 347 354 2 9 15 18 15 11 9 7 6 4 2 360 358 357 356 354 353 354 358 4 10 14 14 6 348 323 304
352 352 353 353 354 355 355 356 355 354 353 352 352 352 352 352 351 350 349 347 345 343 342 341 340 340 338 337 335 334 334 336 341 345 346 342 336 333 336 342 349 359 8 16 22 21 15 10 9 8 8 6 4 1 360 359 358 356 354 353 353 357 3 11 18 23 22 9 336
352 352 353 354 355 355 355 355 355 354 353 353 354 355 355 355 354 353 351 349 347 346 344 343 342 341 341 341 339 337 336 336 340 343 343 338 333 333 337 344 352 2 11 18 21 18 10 5 6 7 8 7 5 4 2 1 360 358 356 355 353 352 355 2 12 22 30 36 40
351 352 353 354 355 355 356 356 355 354 353 354 356 357 357 356 355 354 352 351 350 348 346 344 343 343 344 344 342 340 338 338 340 342 340 335 332 334 338 345 354 4 11 16 15 11 3 0 2 5 7 8 7 7 6 5 3 1 359 358 356 354 354 356 2 13 26 39 50
350 351 353 355 356 356 356 356 355 354 354 355 357 357 356 355 355 354 353 353 352 350 348 346 346 346 347 346 345 343 341 341 342 342 338 334 335 337 340 345 355 4 11 15 12 8 1 359 0 4 7 9 11 12 12 10 8 5 3 2 0 358 357 356 355 0 12 27 42
350 352 354 355 357 357 357 356 355 354 354 356 358 357 356 355 355 354 353 353 353 352 350 349 350 350 350 349 347 345 345 344 344 342 339 336 339 340 341 344 351 1 9 13 10 9 6 1 2 6 10 13 16 18 19 18 16 14 11 8 6 3 1 359 356 354 357 8 22
350 352 354 356 357 358 357 356 354 354 355 357 357 356 355 355 354 354 354 355 355 354 353 354 354 353 352 351 349 348 347 347 346 343 341 340 344 344 343 342 345 354 3 8 8 10 11 5 6 9 13 16 20 23 25 27 28 27 24 19 14 10 7 6 3 0 358 1 6
351 353 355 356 357 358 357 356 354 354 356 358 357 355 354 354 354 354 355 356 357 357 357 358 357 356 354 353 352 351 350 348 346 345 345 347 350 349 345 342 341 346 354 0 5 10 14 7 7 10 13 16 21 26 31 35 38 39 38 34 27 21 17 15 13 11 10 11 10
352 354 355 357 357 357 356 355 354 355 357 358 356 354 354 354 355 355 357 358 359 0 0 360 358 356 355 354 354 353 351 349 348 348 349 352 354 352 348 342 340 341 347 354 2 8 11 5 5 7 10 13 19 27 35 41 44 45 45 43 38 32 26 22 20 19 20 22 21
353 354 356 356 357 356 355 354 353 355 357 357 355 354 354 355 356 357 358 0 2 3 2 0 358 356 355 355 356 355 354 352 352 352 353 354 355 353 349 344 340 339 343 351 358 4 6 3 359 1 5 10 16 25 36 43 44 44 44 45 42 38 33 29 26 25 25 26 27
354 355 356 356 356 355 355 353 353 355 357 356 355 354 354 356 357 359 1 3 5 5 3 360 357 355 354 355 356 356 356 356 356 356 355 355 354 352 349 345 342 339 341 348 354 359 1 360 352 352 359 7 14 24 34 40 38 37 39 41 42 40 36 32 29 27 26 26 28
354 355 355 355 355 354 354 353 353 355 357 356 355 354 355 357 359 0 2 4 6 6 3 0 358 356 356 356 356 356 356 357 358 357 356 354 352 350 348 345 342 340 340 345 353 358 359 358 350 346 355 6 14 23 31 35 32 30 33 38 41 41 39 35 31 28 27 27 27
354 355 354 354 354 353 353 352 353 355 357 357 356 356 357 358 360 1 3 5 7 7 5 1 359 359 359 359 357 356 355 355 356 356 354 352 350 348 346 344 342 340 340 342 349 355 358 358 355 355 2 12 18 25 32 35 31 29 31 37 42 43 42 37 33 31 29 29 29
354 354 353 353 352 352 352 352 352 354 356 356 356 357 358 359 -0 2 4 7 10 10 8 4 3 5 6 5 3 360 356 354 353 352 352 351 349 347 345 343 342 341 340 340 344 351 357 359 4 11 19 21 24 28 33 36 34 32 33 39 44 45 44 40 36 34 34 34 35
355 353 352 351 351 351 351 351 352 354 355 356 356 357 359 360 0 1 4 8 11 11 9 7 8 10 12 12 11 7 2 356 352 351 350 350 348 347 346 344 342 342 341 340 342 350 358 2 10 18 25 25 27 32 37 38 37 35 37 41 46 47 45 42 41 40 41 42 42
355 353 351 350 350 350 350 350 352 354 355 356 356 357 359 0 0 1 2 5 8 9 8 8 11 14 16 16 16 14 9 3 358 354 353 351 350 350 349 346 344 343 343 343 344 352 1 5 12 18 23 25 30 35 40 42 42 40 42 46 50 49 45 42 46 50 53 52 51
356 353 351 350 349 349 349 350 352 355 356 356 356 357 358 359 0 360 360 2 3 4 4 7 11 14 16 18 19 18 15 10 5 1 358 356 355 355 353 350 348 347 347 347 349 357 4 5 11 17 21 25 31 38 43 46 48 48 50 53 55 52 45 42 50 60 66 64 59
357 354 352 350 349 348 348 350 353 356 357 356 355 355 356 358 359 359 358 357 358 359 0 3 8 12 14 16 18 18 17 13 9 6 3 2 2 1 359 356 356 356 357 356 358 3 7 5 8 15 20 24 31 39 44 48 53 56 59 62 63 57 47 45 53 64 73 72 65
358 356 353 351 349 348 348 350 354 357 357 356 354 354 354 356 357 358 356 354 352 353 355 357 2 7 10 13 16 17 16 14 12 10 8 8 8 7 6 5 7 9 10 8 8 10 9 3 4 11 17 21 29 37 43 49 55 61 66 70 71 65 52 47 53 62 69 70 65
357 356 354 352 350 348 348 350 355 357 357 355 353 352 353 354 356 356 354 350 346 345 346 349 353 359 4 9 14 16 15 14 13 12 12 12 13 13 13 14 17 21 22 20 16 13 8 2 358 4 12 16 25 35 43 49 56 63 69 75 78 73 60 47 49 55 60 62 60
356 355 354 353 350 349 348 350 354 357 357 356 353 351 351 351 353 354 352 348 343 339 338 340 344 350 357 5 11 13 13 13 12 12 13 14 16 16 16 17 21 25 27 25 19 11 3 359 357 359 5 11 22 35 44 50 57 63 69 74 78 78 67 45 34 39 47 53 54
353 353 352 351 350 349 348 350 353 356 357 356 353 351 349 349 350 351 351 347 341 337 334 334 336 341 349 357 6 10 11 10 10 10 11 14 16 17 16 16 17 20 23 24 20 13 6 4 3 1 2 11 27 40 48 54 59 63 66 70 74 75 70 53 28 22 29 40 47
Height
1521 1519 1517 1516 1514 1512 1510 1509 1507 1505 1503 1501 1499 1497 1496 1494 1492 1491 1489 1487 1485 1483 1481 1479 1478 1476 1474 1472 1471 1469 1467 1466 1464 1462 1460 1458 1456 1454 1451 1449 1447 1444 1442 1440 1438 1436 1434 1432 1430 1428 1426 1424 1423 1422 1421 1420 1419 1418 1417 1417 1416 1415 1415 1415 1415 1415 1416 1417 1417
1520 1519 1517 1515 1513 1512 1509 1507 1506 1504 1502 1501 1499 1497 1495 1494 1492 1490 1488 1486 1484 1482 1480 1478 1477 1475 1473 1472 1470 1468 1467 1464 1462 1461 1459 1457 1455 1453 1450 1448 1446 1443 1441 1438 1436 1434 1432 1430 1428 1426 1424 1422 1421 1420 1419 1418 1417 1416 1415 1414 1414 1413 1412 1412 1412 1412 1413 1414 1414
1519 1518 1516 1514 1512 1511 1509 1507 1505 1503 1502 1500 1498 1497 1495 1493 1491 1489 1487 1485 1483 1481 1480 1478 1476 1474 1472 1471 1469 1467 1465 1463 1462 1460 1458 1456 1454 1452 1449 1447 1444 1442 1439 1437 1435 1433 1430 1428 1426 1424 1422 1420 1419 1418 1417 1416 1415 1414 1413 1412 1412 1411 1411 1410 1410 1411 1411 1412 1412
1519 1517 1516 1513 1512 1510 1508 1507 1504 1502 1501 1499 1497 1496 1494 1493 1491 1488 1486 1484 1482 1480 1479 1477 1475 1473 1472 1470 1468 1466 1464 1462 1461 1459 1457 1455 1452 1450 1448 1446 1443 1440 1438 1436 1433 1431 1429 1427 1424 1422 1421 1419 1417 1416 1415 1414 1414 1413 1412 1411 1410 1410 1409 1408 1409 1409 1409 1409 1409
1518 1517 1515 1513 1511 1510 1508 1506 1504 1502 1500 1498 1497 1495 1494 1492 1490 1487 1485 1483 1481 1480 1478 1476 1475 1473 1471 1469 1467 1465 1463 1462 1460 1458 1456 1454 1452 1449 1447 1445 1442 1440 1437 1434 1432 1430 1427 1425 1422 1421 1420 1418 1417 1415 1414 1413 1412 1412 1411 1410 1409 1408 1408 1407 1407 1407 1407 1407 1407
1517 1516 1514 1512 1511 1509 1507 1505 1503 1502 1500 1498 1496 1495 1493 1491 1489 1487 1484 1482 1480 1479 1477 1475 1474 1472 1470 1468 1466 1464 1462 1461 1459 1457 1455 1453 1451 1448 1446 1444 1442 1439 1437 1434 1431 1429 1426 1424 1422 1420 1419 1417 1416 1414 1413 1412 1411 1410 1409 1408 1408 1407 1407 1406 1406 1406 1406 1406 1405
1517 1515 1513 1512 1510 1508 1506 1504 1502 1501 1499 1497 1496 1494 1492 1490 1488 1486 1484 1482 1480 1478 1476 1474 1473 1471 1469 1467 1465 1463 1462 1460 1458 1457 1454 1452 1450 1448 1446 1443 1441 1439 1436 1433 1431 1428 1426 1423 1422 1419 1418 1416 1415 1413 1412 1412 1411 1409 1408 1407 1406 1406 1405 1405 1405 1404 1404 1403 1403
1517 1515 1513 1511 1509 1507 1505 1503 1502 1500 1498 1496 1495 1493 1491 1489 1487 1485 1483 1481 1479 1477 1475 1474 1472 1470 1469 1467 1465 1463 1461 1460 1458 1456 1453 1452 1449 1447 1445 1443 1441 1438 1436 1433 1431 1428 1426 1423 1421 1419 1417 1415 1414 1412 1411 1410 1409 1408 1407 1406 1405 1404 1403 1403 1403 1402 1402 1402 1401
1516 1514 1512 1510 1508 1506 1504 1502 1501 1499 1497 1496 1494 1492 1490 1488 1486 1484 1482 1480 1478 1476 1475 1473 1471 1470 1468 1466 1464 1462 1461 1459 1457 1455 1453 1451 1449 1447 1445 1442 1440 1438 1435 1433 1431 1428 1426 1423 1421 1419 1417 1415 1413 1412 1410 1409 1407 1406 1406 1404 1403 1402 1402 1402 1402 1401 1400 1400 1399
1515 1513 1511 1509 1507 1505 1503 1501 1500 1498 1496 1494 1492 1491 1489 1487 1485 1483 1481 1479 1477 1475 1474 1472 1470 1469 1467 1465 1463 1462 1460 1459 1457 1455 1452 1450 1448 1447 1444 1442 1440 1437 1435 1433 1430 1428 1425 1423 1421 1419 1417 1415 1413 1412 1410 1408 1407 1405 1404 1403 1402 1401 1401 1400 1400 1399 1399 1398 1398
1514 1512 1510 1508 1506 1504 1502 1500 1498 1497 1495 1493 1491 1489 1487 1486 1484 1482 1480 1478 1476 1474 1473 1471 1469 1468 1466 1464 1462 1461 1459 1458 1457 1454 1452 1450 1448 1446 1444 1442 1440 1437 1435 1433 1430 1428 1426 1423 1421 1419 1417 1415 1413 1411 1409 1407 1406 1405 1403 1402 1400 1399 1398 1398 1398 1398 1397 1397 1396
1512 1511 1509 1507 1505 1503 1501 1499 1497 1495 1493 1492 1490 1488 1486 1484 1482 1481 1479 1477 1475 1473 1472 1470 1468 1467 1465 1463 1462 1460 1458 1457 1456 1453 1451 1449 1447 1445 1443 1441 1439 1437 1435 1433 1430 1428 1426 1423 1421 1419 1417 1415 1413 1411 1409 1407 1406 1404 1402 1401 1400 1398 1397 1397 1396 1396 1396 1395 1395
1512 1510 1507 1506 1504 1502 1500 1497 1496 1494 1492 1490 1488 1487 1485 1483 1481 1479 1477 1476 1474 1472 1471 1469 1467 1466 1464 1462 1461 1459 1457 1456 1454 1452 1451 1448 1446 1444 1442 1440 1438 1436 1434 1432 1430 1428 1426 1423 1421 1419 1417 1415 1413 1411 1409 1407 1405 1403 1402 1400 1399 1398 1397 1396 1395 1395 1394 1394 1393
1510 1508 1506 1504 1502 1500 1498 1496 1494 1492 1491 1489 1487 1486 1484 1482 1480 1478 1477 1474 1473 1471 1469 1468 1466 1465 1463 1462 1460 1458 1456 1455 1453 1452 1450 1448 1446 1443 1441 1439 1437 1435 1434 1432 1430 1428 1426 1423 1421 1419 1417 1415 1413 1411 1409 1407 1405 1403 1402 1400 1398 1397 1396 1395 1394 1394 1393 1392 1392
1509 1507 1505 1503 1501 1499 1497 1495 1493 1492 1490 1488 1487 1485 1483 1481 1479 1477 1475 1473 1472 1470 1468 1467 1465 1464 1462 1461 1459 1457 1456 1454 1452 1451 1449 1447 1445 1442 1440 1438 1436 1434 1433 1431 1429 1427 1425 1423 1421 1419 1417 1415 1413 1412 1409 1407 1405 1403 1401 1400 1398 1397 1396 1394 1393 1393 1392 1392 1391
1507 1505 1503 1502 1500 1498 1496 1494 1492 1491 1489 1487 1486 1484 1482 1480 1478 1477 1475 1472 1471 1469 1467 1466 1464 1462 1461 1460 1458 1457 1455 1453 1452 1450 1448 1446 1443 1441 1439 1437 1435 1433 1432 1430 1428 1426 1424 1423 1421 1419 1417 1415 1413 1412 1410 1408 1406 1404 1402 1400 1398 1397 1395 1394 1393 1392 1391 1391 1390
1506 1504 1502 1501 1499 1497 1495 1494 1492 1490 1489 1487 1485 1484 1482 1480 1478 1476 1474 1472 1470 1468 1466 1465 1463 1461 1460 1458 1457 1456 1454 1452 1451 1449 1447 1445 1443 1441 1438 1436 1434 1433 1431 1429 1427 1425 1423 1422 1421 1419 1417 1415 1413 1412 1410 1408 1406 1404 1402 1400 1398 1397 1395 1394 1393 1392 1391 1390 1389
1505 1503 1502 1500 1498 1496 1494 1493 1491 1490 1488 1487 1485 1483 1481 1479 1477 1475 1473 1471 1469 1467 1465 1463 1462 1460 1459 1457 1456 1455 1453 1452 1450 1448 1447 1445 1442 1440 1437 1436 1434 1432 1431 1428 1426 1424 1423 1422 1420 1419 1417 1415 1414 1412 1410 1408 1407 1405 1403 1401 1399 1397 1396 1394 1393 1392 1390 1389 1388
1504 1502 1501 1499 1497 1495 1494 1492 1491 1489 1488 1486 1484 1482 1480 1478 1476 1474 1472 1470 1468 1466 1464 1462 1461 1459 1457 1456 1455 1453 1452 1451 1449 1447 1446 1444 1442 1439 1437 1435 1433 1432 1430 1427 1425 1424 1422 1421 1420 1418 1417 1415 1414 1412 1410 1409 1407 1405 1403 1402 1400 1398 1396 1395 1393 1392 1390 1389 1387
1504 1502 1500 1498 1497 1495 1493 1492 1490 1489 1487 1485 1483 1482 1479 1477 1475 1473 1471 1469 1467 1465 1463 1461 1459 1458 1456 1455 1453 1452 1451 1450 1448 1447 1445 1443 1441 1438 1436 1434 1433 1431 1428 1426 1425 1423 1422 1421 1420 1418 1417 1415 1413 1412 1410 1408 1407 1405 1403 1402 1400 1398 1397 1395 1394 1392 1391 1389 1387
1504 1502 1500 1498 1496 1495 1493 1491 1490 1488 1487 1485 1483 1481 1478 1477 1474 1472 1470 1468 1466 1464 1462 1461 1458 1457 1455 1453 1452 1451 1450 1449 1447 1446 1444 1442 1440 1437 1436 1434 1432 1430 1427 1425 1424 1423 1422 1421 1419 1418 1416 1415 1413 1412 1410 1408 1407 1405 1403 1402 1400 1399 1397 1396 1395 1393 1392 1390 1388
1503 1502 1500 1498 1496 1494 1492 1491 1489 1487 1486 1484 1482 1480 1477 1476 1473 1472 1469 1467 1465 1463 1462 1460 1458 1456 1454 1452 1451 1450 1448 1447 1447 1445 1443 1441 1439 1437 1435 1434 1432 1429 1426 1424 1423 1423 1422 1420 1419 1418 1416 1415 1413 1412 1410 1408 1406 1405 1403 1402 1400 1399 1398 1397 1396 1394 1392 1391 1389
1503 1501 1499 1497 1496 1494 1492 1491 1489 1487 1485 1483 1481 1479 1477 1475 1472 1471 1469 1467 1465 1462 1461 1459 1457 1455 1453 1452 1450 1449 1447 1446 1445 1444 1442 1440 1438 1436 1434 1433 1431 1428 1425 1423 1423 1424 1423 1420 1419 1418 1416 1415 1413 1411 1410 1408 1406 1405 1403 1402 1400 1399 1398 1397 1396 1395 1393 1392 1390
1503 1501 1499 1497 1495 1493 1492 1490 1488 1486 1484 1482 1480 1478 1476 1474 1472 1470 1468 1466 1464 1462 1460 1458 1456 1454 1452 1451 1450 1448 1447 1445 1444 1442 1441 1439 1437 1435 1434 1432 1431 1428 1425 1422 1424 1426 1424 1420 1419 1417 1416 1415 1413 1411 1409 1408 1406 1405 1403 1402 1400 1399 1398 1397 1396 1395 1394 1393 1391
1502 1501 1499 1497 1495 1493 1491 1489 1487 1486 1484 1482 1479 1477 1476 1473 1471 1469 1467 1465 1463 1461 1459 1457 1455 1453 1452 1450 1449 1447 1446 1445 1443 1442 1440 1438 1436 1434 1433 1432 1431 1429 1425 1422 1425 1426 1424 1421 1419 1418 1416 1414 1413 1411 1409 1408 1406 1405 1403 1402 1401 1399 1398 1397 1396 1395 1395 1394 1392
1502 1500 1498 1496 1494 1492 1491 1489 1487 1485 1483 1481 1479 1477 1475 1473 1471 1469 1467 1464 1462 1460 1458 1456 1454 1452 1451 1450 1448 1447 1445 1444 1442 1441 1439 1437 1435 1434 1433 1431 1430 1428 1425 1422 1426 1426 1424 1422 1420 1418 1416 1415 1413 1411 1410 1408 1407 1405 1404 1402 1401 1400 1399 1397 1396 1395 1395 1394 1393
1501 1499 1498 1496 1494 1492 1491 1489 1487 1485 1483 1481 1479 1477 1475 1473 1471 1468 1466 1464 1462 1460 1457 1456 1454 1452 1451 1449 1448 1446 1445 1443 1442 1440 1439 1437 1435 1434 1432 1431 1429 1427 1425 1423 1426 1426 1425 1422 1420 1418 1417 1415 1413 1412 1410 1408 1407 1406 1404 1403 1402 1401 1399 1398 1397 1396 1395 1395 1394
1501 1499 1497 1496 1494 1492 1490 1488 1487 1484 1482 1480 1478 1477 1475 1473 1471 1468 1466 1464 1462 1459 1457 1455 1454 1452 1451 1449 1447 1446 1445 1443 1442 1440 1438 1437 1436 1434 1432 1431 1429 1427 1426 1424 1424 1426 1425 1423 1421 1419 1417 1415 1414 1412 1410 1409 1408 1407 1405 1404 1403 1401 1400 1399 1398 1397 1396 1395 1394
1501 1499 1497 1495 1493 1492 1490 1488 1486 1484 1482 1480 1478 1477 1475 1472 1470 1468 1465 1463 1461 1459 1457 1455 1454 1452 1451 1449 1448 1446 1445 1443 1442 1440 1438 1437 1436 1434 1432 1431 1429 1427 1426 1424 1423 1424 1425 1423 1421 1419 1417 1416 1414 1412 1411 1410 1408 1407 1406 1405 1404 1402 1401 1400 1399 1398 1397 1396 1395
1501 1499 1497 1495 1493 1492 1490 1488 1487 1484 1482 1480 1478 1477 1474 1472 1470 1467 1465 1463 1461 1459 1457 1456 1454 1452 1451 1449 1448 1447 1445 1443 1442 1440 1439 1437 1435 1434 1432 1431 1429 1427 1426 1424 1423 1422 1423 1423 1421 1419 1417 1416 1415 1413 1412 1410 1409 1408 1407 1406 1405 1404 1402 1401 1400 1399 1398 1397 1396
1501 1499 1497 1495 1493 1492 1490 1488 1487 1484 1482 1480 1478 1477 1474 1472 1470 1467 1465 1463 1461 1460 1458 1457 1455 1453 1451 1450 1448 1447 1445 1444 1442 1441 1439 1437 1435 1434 1432 1431 1429 1427 1426 1425 1423 1422 1421 1422 1420 1418 1417 1416 1415 1414 1412 1411 1410 1409 1408 1407 1406 1405 1404 1402 1401 1400 1399 1398 1397
1501 1498 1497 1495 1493 1492 1490 1488 1486 1484 1482 1480 1478 1476 1474 1472 1470 1468 1466 1464 1462 1460 1458 1457 1455 1453 1451 1450 1448 1447 1445 1444 1442 1441 1439 1437 1436 1434 1432 1431 1429 1427 1426 1425 1423 1422 1421 1421 1419 1417 1416 1416 1415 1414 1413 1412 1411 1410 1409 1408 1407 1406 1405 1404 1402 1401 1400 1399 1398
1500 1498 1497 1495 1493 1492 1490 1488 1486 1484 1482 1480 1478 1476 1474 1472 1470 1468 1466 1464 1462 1460 1459 1457 1455 1453 1451 1450 1448 1447 1446 1444 1443 1441 1440 1438 1436 1434 1433 1431 1429 1428 1426 1425 1424 1422 1421 1421 1419 1417 1415 1415 1415 1414 1413 1412 1411 1410 1409 1409 1408 1407 1406 1405 1404 1402 1401 1400 1399
1500 1498 1497 1495 1493 1491 1490 1488 1486 1484 1482 1480 1478 1476 1474 1472 1470 1468 1466 1464 1463 1461 1460 1458 1456 1454 1452 1451 1449 1447 1446 1445 1443 1442 1440 1438 1436 1435 1433 1431 1429 1428 1427 1425 1424 1422 1422 1421 1420 1418 1416 1415 1415 1414 1413 1412 1412 1411 1410 1410 1409 1408 1407 1406 1405 1404 1402 1402 1401
1500 1498 1496 1494 1493 1491 1489 1488 1486 1484 1482 1480 1477 1476 1474 1472 1471 1468 1467 1465 1463 1462 1460 1459 1457 1455 1453 1452 1450 1448 1447 1445 1443 1442 1440 1438 1437 1434 1433 1431 1429 1428 1427 1425 1424 1423 1422 1422 1421 1419 1417 1416 1415 1414 1414 1413 1412 1412 1411 1411 1410 1409 1408 1407 1406 1405 1404 1403 1402
1500 1498 1496 1494 1492 1491 1489 1487 1486 1483 1482 1479 1477 1475 1474 1472 1471 1469 1467 1466 1464 1462 1461 1459 1457 1455 1453 1452 1450 1448 1447 1446 1444 1442 1441 1439 1437 1435 1432 1431 1429 1428 1427 1426 1424 1423 1423 1422 1422 1420 1418 1417 1416 1415 1414 1414 1413 1412 1412 1411 1411 1410 1409 1408 1407 1406 1405 1405 1404
1500 1498 1496 1494 1492 1491 1489 1487 1485 1483 1481 1479 1477 1475 1474 1472 1471 1469 1467 1466 1464 1462 1461 1459 1457 1456 1454 1452 1450 1449 1448 1447 1445 1443 1441 1439 1437 1435 1433 1431 1429 1428 1427 1426 1425 1424 1423 1423 1422 1421 1419 1417 1416 1416 1415 1414 1414 1413 1413 1412 1412 1411 1410 1409 1408 1407 1407 1407 1406
1500 1498 1496 1494 1492 1491 1489 1487 1485 1483 1481 1479 1477 1476 1474 1472 1470 1469 1467 1466 1464 1463 1461 1459 1458 1456 1454 1453 1451 1450 1448 1447 1445 1443 1442 1440 1438 1436 1433 1432 1430 1428 1427 1426 1425 1424 1424 1423 1423 1422 1420 1418 1417 1416 1416 1415 1414 1414 1413 1413 1412 1411 1411 1410 1409 1408 1408 1408 1408
1500 1498 1497 1495 1492 1491 1489 1487 1485 1483 1482 1479 1477 1475 1474 1472 1470 1469 1468 1467 1465 1463 1462 1460 1458 1457 1455 1453 1452 1450 1449 1447 1446 1444 1442 1441 1439 1437 1435 1432 1431 1429 1428 1427 1426 1425 1425 1424 1423 1422 1420 1419 1418 1417 1417 1416 1415 1415 1414 1414 1413 1412 1412 1411 1410 1409 1409 1409 1409
1500 1498 1497 1495 1493 1491 1489 1487 1485 1483 1482 1480 1477 1476 1474 1472 1471 1469 1468 1467 1465 1463 1462 1460 1458 1457 1456 1454 1452 1450 1449 1448 1446 1445 1443 1442 1440 1438 1436 1433 1432 1430 1428 1427 1427 1427 1426 1425 1423 1422 1420 1419 1418 1418 1417 1417 1416 1416 1415 1414 1414 1413 1412 1412 1411 1410 1410 1409 1410
1501 1498 1497 1495 1493 1491 1489 1487 1485 1483 1482 1480 1478 1476 1474 1472 1471 1469 1467 1466 1465 1463 1462 1460 1459 1457 1456 1454 1452 1451 1450 1448 1447 1445 1444 1442 1441 1439 1437 1434 1432 1430 1429 1427 1427 1427 1427 1425 1423 1421 1420 1419 1419 1418 1418 1417 1417 1416 1416 1415 1415 1414 1414 1413 1412 1412 1411 1411 1411